2024-159K

Last updated on Thu Sep 19 2024 00:02:04 GMT+0000 (Coordinated Universal Time)

1 61020U 24159K 24262.32131611 .00018078 00000+0 13517-2 0 9996 2 61020 49.9997 180.5945 0007458 314.0559 45.9773 15.02750631 1861
UTC large
Height (km)
Speed (km/s)
/
Latitude / Longitude
Inclination (degrees)
Orbital Period (minutes)
Azimuth
Elevation
Range (km)
Doppler Factor

Next 0 passes for location: London (51.5072 / 0.1276)

Sorry there are no passes over London.